Regional Weather Roundup
Issued by NWS

Home | Current Version | Previous Version | Graphics & Text | Print | Product List | Glossary On
Versions: 1 2 3 4 5 6 7 8 9 10 11 12 13 14 15 16 17 18 19 20 21 22 23 24 25 26 27 28 29 30 31 32 33 34 35 36 37 38 39 40 41 42 43 44 45 46 47 48 49 50
142
ASUS43 KBIS 201402
RWRND

NORTH DAKOTA REGIONAL WEATHER ROUNDUP
NATIONAL WEATHER SERVICE BISMARCK ND
900 AM CDT SUN AUG 20 2017

NOTE: "FAIR" INDICATES FEW OR NO CLOUDS BELOW 12,000 FEET WITH NO
SIGNIFICANT WEATHER AND/OR OBSTRUCTIONS TO VISIBILITY.


NDZ001>003-009>011-017-201500-
NORTHWEST NORTH DAKOTA

CITY           SKY/WX    TMP DP  RH WIND       PRES   REMARKS
WILLISTON      CLOUDY    53  42  66 CALM      30.09R
MINOT          SUNNY     59  43  55 SW6       30.04R
MINOT AFB      SUNNY     58  43  56 W8        30.03R
$$

NDZ018>021-031>035-040>046-201500-
SOUTHWEST NORTH DAKOTA

CITY           SKY/WX    TMP DP  RH WIND       PRES   REMARKS
BISMARCK       PTSUNNY   62  48  60 NW3       30.05S
DICKINSON      CLOUDY    56  44  64 N6        30.07R
GARRISON         N/A     57  46  66 NW6       30.06R
HETTINGER ARPT CLOUDY    59  41  51 NE12      30.09R
$$

NDZ004>008-012>016-024-026-027-054-201500-
NORTHEAST NORTH DAKOTA

CITY           SKY/WX    TMP DP  RH WIND       PRES   REMARKS
GRAND FORKS    CLOUDY    64  51  62 NW12      29.94R
GRND FRKS AFB    N/A     61  49  64 NW9G17    29.95R
DEVILS LAKE    SUNNY     61  49  64 W12       30.01S
$$

NDZ022-023-025-028>030-036>039-047>053-201500-
SOUTHEAST NORTH DAKOTA

CITY           SKY/WX    TMP DP  RH WIND       PRES   REMARKS
FARGO          CLOUDY    62  52  69 NW9       29.96R
JAMESTOWN      CLOUDY    60  49  66 NW7       30.01R
$$





USA.gov is the U.S. government's official web portal to all federal, state and local government web resources and services.